| time (UTC) | temp F | wind direction | speed MPH | gust MPH | rain 1hr in | rain 24hr in | rain mn in | humidity % | barometer mb |
| 20260506094554 | 74 | 221 | 6.0 | 14.0 | 0.00 | 0.00 | 0.00 | 52 | 1012.8 |
| 20260506093057 | 74 | 236 | 4.0 | 17.0 | 0.00 | 0.00 | 0.00 | 52 | 1012.8 |
| 20260506091556 | 73 | 250 | 5.0 | 16.0 | 0.00 | 0.00 | 0.00 | 53 | 1012.9 |
| 20260506090052 | 72 | 247 | 4.0 | 13.0 | 0.00 | 0.00 | 0.00 | 54 | 1012.9 |
| 20260506084555 | 72 | 282 | 5.0 | 12.0 | 0.00 | 0.00 | 0.00 | 54 | 1012.9 |
| 20260506083053 | 72 | 240 | 5.0 | 11.0 | 0.00 | 0.00 | 0.00 | 54 | 1013.0 |
| 20260506081554 | 71 | 221 | 6.0 | 13.0 | 0.00 | 0.00 | 0.00 | 54 | 1013.0 |
| 20260506073059 | 69 | 203 | 5.0 | 10.0 | 0.00 | 0.00 | 0.00 | 58 | 1013.0 |
| 20260506071556 | 68 | 214 | 3.0 | 9.0 | 0.00 | 0.00 | 0.00 | 61 | 1013.0 |
| 20260506070115 | 67 | 228 | 2.0 | 9.0 | 0.00 | 0.00 | 0.00 | 62 | 1013.1 |
| 20260506061601 | 63 | 197 | 3.0 | 7.0 | 0.00 | 0.00 | 0.00 | 65 | 1013.2 |
| 20260506044601 | 54 | 315 | 1.0 | 7.0 | 0.00 | 0.00 | 0.00 | 78 | 1013.2 |
| 20260506043100 | 51 | 123 | 2.0 | 4.0 | 0.00 | 0.00 | 0.00 | 82 | 1012.9 |
| 20260506041556 | 49 | 298 | 0.0 | 1.0 | 0.00 | 0.00 | 0.00 | 84 | 1013.0 |
| 20260506040059 | 48 | 0 | 0.0 | 0.0 | 0.00 | 0.00 | 0.00 | 85 | 1013.0 |
| 20260506034557 | 48 | 0 | 0.0 | 0.0 | 0.00 | 0.00 | 0.00 | 85 | 1012.9 |
| 20260506033054 | 48 | 0 | 0.0 | 1.0 | 0.00 | 0.00 | 0.00 | 83 | 1012.9 |
| 20260506031602 | 49 | 0 | 0.0 | 1.0 | 0.00 | 0.00 | 0.00 | 83 | 1012.9 |
| 20260506030112 | 49 | 283 | 0.0 | 1.0 | 0.00 | 0.00 | 0.00 | 84 | 1012.9 |
| 20260506024556 | 49 | 0 | 0.0 | 2.0 | 0.00 | 0.00 | 0.00 | 83 | 1012.9 |
| 20260506023056 | 49 | 338 | 0.0 | 1.0 | 0.00 | 0.00 | 0.00 | 83 | 1012.9 |
| 20260506021614 | 49 | 315 | 0.0 | 1.0 | 0.00 | 0.00 | 0.00 | 83 | 1012.8 |
| 20260506020057 | 50 | 315 | 0.0 | 1.0 | 0.00 | 0.00 | 0.00 | 82 | 1012.8 |
| 20260506014602 | 50 | 315 | 0.0 | 1.0 | 0.00 | 0.00 | 0.00 | 83 | 1012.7 |
| 20260506013058 | 50 | 0 | 0.0 | 1.0 | 0.00 | 0.00 | 0.00 | 83 | 1012.7 |
| 20260506011558 | 50 | 0 | 0.0 | 2.0 | 0.00 | 0.00 | 0.00 | 82 | 1012.7 |
| 20260506010059 | 51 | 0 | 0.0 | 1.0 | 0.00 | 0.00 | 0.00 | 80 | 1012.7 |
| 20260506004625 | 51 | 293 | 0.0 | 1.0 | 0.00 | 0.00 | 0.00 | 81 | 1012.6 |
| 20260506003101 | 51 | 0 | 0.0 | 0.0 | 0.00 | 0.00 | 0.00 | 80 | 1012.6 |
| 20260506001600 | 51 | 0 | 0.0 | 1.0 | 0.00 | 0.00 | 0.00 | 80 | 1012.7 |
| 20260506000057 | 52 | 0 | 0.0 | 1.0 | 0.00 | 0.00 | 0.00 | 79 | 1012.5 |
| 20260505234618 | 54 | 0 | 0.0 | 1.0 | 0.00 | 0.00 | 0.00 | 76 | 1012.5 |
| 20260505233055 | 54 | 0 | 0.0 | 0.0 | 0.00 | 0.00 | 0.00 | 75 | 1012.6 |
| 20260505231554 | 55 | 0 | 0.0 | 0.0 | 0.00 | 0.00 | 0.00 | 75 | 1012.7 |
| 20260505230056 | 55 | 285 | 0.0 | 2.0 | 0.00 | 0.00 | 0.00 | 76 | 1012.8 |
| 20260505224557 | 56 | 0 | 0.0 | 1.0 | 0.00 | 0.00 | 0.00 | 73 | 1012.8 |
| 20260505223102 | 56 | 333 | 0.0 | 1.0 | 0.00 | 0.00 | 0.00 | 73 | 1013.0 |
| 20260505221613 | 56 | 0 | 0.0 | 0.0 | 0.00 | 0.00 | 0.00 | 73 | 1013.0 |
| 20260505220138 | 56 | 0 | 0.0 | 0.0 | 0.00 | 0.00 | 0.00 | 72 | 1013.0 |
| 20260505214615 | 58 | 338 | 0.0 | 2.0 | 0.00 | 0.00 | 0.00 | 69 | 1012.9 |
| 20260505213057 | 61 | 311 | 0.0 | 5.0 | 0.00 | 0.00 | 0.00 | 65 | 1013.0 |
| 20260505211612 | 62 | 289 | 1.0 | 5.0 | 0.00 | 0.00 | 0.00 | 64 | 1013.1 |
| 20260505210055 | 62 | 239 | 2.0 | 8.0 | 0.00 | 0.00 | 0.00 | 65 | 1013.0 |
| 20260505204558 | 62 | 0 | 0.0 | 2.0 | 0.00 | 0.00 | 0.00 | 65 | 1012.9 |
| 20260505203055 | 62 | 0 | 0.0 | 5.0 | 0.00 | 0.00 | 0.00 | 63 | 1012.9 |
| 20260505201607 | 62 | 283 | 0.0 | 5.0 | 0.00 | 0.00 | 0.00 | 63 | 1012.9 |
| 20260505194602 | 63 | 295 | 2.0 | 6.0 | 0.00 | 0.00 | 0.00 | 62 | 1012.9 |
| 20260505193056 | 64 | 269 | 4.0 | 11.0 | 0.00 | 0.00 | 0.00 | 60 | 1012.9 |
| 20260505191555 | 65 | 296 | 4.0 | 9.0 | 0.00 | 0.00 | 0.00 | 59 | 1012.8 |
| 20260505190100 | 65 | 309 | 3.0 | 13.0 | 0.00 | 0.00 | 0.00 | 58 | 1012.8 |
| 20260505184553 | 66 | 297 | 6.0 | 16.0 | 0.00 | 0.00 | 0.00 | 57 | 1012.6 |
| 20260505183055 | 66 | 310 | 7.0 | 16.0 | 0.00 | 0.00 | 0.00 | 57 | 1012.4 |
| 20260505181554 | 67 | 328 | 8.0 | 17.0 | 0.00 | 0.00 | 0.00 | 55 | 1012.3 |
| 20260505174558 | 69 | 272 | 7.0 | 17.0 | 0.00 | 0.00 | 0.00 | 54 | 1012.0 |
| 20260505173053 | 70 | 287 | 7.0 | 20.0 | 0.00 | 0.00 | 0.00 | 53 | 1011.9 |
| 20260505171554 | 71 | 255 | 8.0 | 19.0 | 0.00 | 0.00 | 0.00 | 51 | 1011.9 |
| 20260505170053 | 72 | 294 | 7.0 | 17.0 | 0.00 | 0.00 | 0.00 | 49 | 1011.7 |
| 20260505164620 | 74 | 271 | 7.0 | 16.0 | 0.00 | 0.00 | 0.00 | 46 | 1011.6 |
| 20260505163056 | 77 | 281 | 5.0 | 8.0 | 0.00 | 0.00 | 0.00 | 39 | 1011.5 |
| 20260505161558 | 78 | 310 | 4.0 | 8.0 | 0.00 | 0.00 | 0.00 | 36 | 1011.4 |
| 20260505153057 | 78 | 233 | 2.0 | 9.0 | 0.00 | 0.00 | 0.00 | 34 | 1011.5 |
| 20260505151556 | 78 | 0 | 2.0 | 10.0 | 0.00 | 0.00 | 0.00 | 33 | 1011.6 |
| 20260505124600 | 81 | 205 | 5.0 | 14.0 | 0.00 | 0.00 | 0.00 | 31 | 1012.6 |
| 20260505123100 | 81 | 153 | 4.0 | 11.0 | 0.00 | 0.00 | 0.00 | 33 | 1012.7 |
| 20260505121556 | 80 | 251 | 4.0 | 15.0 | 0.00 | 0.00 | 0.00 | 32 | 1013.0 |
| 20260505120101 | 80 | 192 | 5.0 | 9.0 | 0.00 | 0.00 | 0.00 | 33 | 1013.0 |
| 20260505114553 | 78 | 211 | 5.0 | 11.0 | 0.00 | 0.00 | 0.00 | 36 | 1013.3 |
| 20260505113055 | 79 | 204 | 4.0 | 11.0 | 0.00 | 0.00 | 0.00 | 35 | 1013.3 |
| 20260505111554 | 80 | 262 | 4.0 | 9.0 | 0.00 | 0.00 | 0.00 | 35 | 1013.6 |
| 20260505110106 | 79 | 225 | 3.0 | 15.0 | 0.00 | 0.00 | 0.00 | 38 | 1013.6 |
| 20260505101553 | 78 | 244 | 2.0 | 8.0 | 0.00 | 0.00 | 0.00 | 39 | 1014.0 |
| 20260505100053 | 77 | 172 | 3.0 | 8.0 | 0.00 | 0.00 | 0.00 | 40 | 1014.1 |